GFA219 OBBI-OKKK

Flight info

Callsign GFA219
Flight time 0h 51m
Altitude 26000
Route BHR A453 KUMBO/N0402F240 A453 DEBTI
Aircraft A320/M-SDE3FGHIRWY/LB1

Departure

Time 2026-04-27 15:53
Airport Bahrain International Airport (OBBI)

Arrival

Time 2026-04-27 16:44
Airport Kuwait International Airport (OKKK)
Time Latitude Longitude Altitude Speed Heading
2026-04-27 14:55 26.27351 50.62413 17 ft 0 kts 213°
2026-04-27 15:44 26.27354 50.62416 17 ft 2 kts 210°
2026-04-27 15:44 26.27368 50.62425 18 ft 2 kts 212°
2026-04-27 15:44 26.27382 50.62435 17 ft 2 kts 213°
2026-04-27 15:44 26.27396 50.62445 18 ft 2 kts 213°
2026-04-27 15:45 26.27410 50.62457 17 ft 2 kts 288°
2026-04-27 15:45 26.27405 50.62467 19 ft 1 kts 302°
2026-04-27 15:45 26.27405 50.62468 19 ft 0 kts 303°
2026-04-27 15:49 26.27423 50.62436 17 ft 5 kts 303°
2026-04-27 15:49 26.27441 50.62405 16 ft 4 kts 303°
2026-04-27 15:49 26.27457 50.62377 16 ft 6 kts 303°
2026-04-27 15:49 26.27495 50.62311 18 ft 11 kts 302°
2026-04-27 15:50 26.27532 50.62247 16 ft 9 kts 302°
2026-04-27 15:50 26.27585 50.62155 16 ft 16 kts 302°
2026-04-27 15:50 26.27642 50.62058 16 ft 14 kts 303°
2026-04-27 15:50 26.27694 50.61968 16 ft 16 kts 303°
2026-04-27 15:51 26.27761 50.61854 17 ft 17 kts 303°
2026-04-27 15:51 26.27827 50.61744 18 ft 17 kts 304°
2026-04-27 15:51 26.27905 50.61653 17 ft 16 kts 337°
2026-04-27 15:51 26.28005 50.61678 18 ft 15 kts 31°
2026-04-27 15:52 26.27987 50.61794 20 ft 27 kts 120°
2026-04-27 15:52 26.27761 50.62190 18 ft 94 kts 122°
2026-04-27 15:52 26.27299 50.62991 16 ft 148 kts 122°
2026-04-27 15:52 26.26686 50.64059 254 ft 169 kts 122°
2026-04-27 15:53 26.26072 50.65144 959 ft 165 kts 115°
2026-04-27 15:53 26.25910 50.66398 1593 ft 167 kts 85°
2026-04-27 15:53 26.26083 50.67744 1955 ft 186 kts 79°
2026-04-27 15:53 26.26345 50.69238 2196 ft 207 kts 78°
2026-04-27 15:54 26.26649 50.70907 2406 ft 232 kts 78°
2026-04-27 15:54 26.26989 50.72762 2742 ft 256 kts 78°
2026-04-27 15:54 26.27364 50.74777 3267 ft 271 kts 78°
2026-04-27 15:54 26.27758 50.76874 3811 ft 280 kts 78°
2026-04-27 15:55 26.28347 50.78936 4062 ft 283 kts 59°
2026-04-27 15:55 26.29122 50.80138 4338 ft 296 kts 45°
2026-04-27 15:55 26.31579 50.81664 4714 ft 322 kts
2026-04-27 15:55 26.33855 50.81534 4997 ft 337 kts 339°
2026-04-27 15:56 26.35862 50.80183 5566 ft 340 kts 315°
2026-04-27 15:56 26.37024 50.78942 6058 ft 342 kts 315°
2026-04-27 15:56 26.39431 50.76637 7025 ft 347 kts 319°
2026-04-27 15:56 26.40691 50.75522 7518 ft 348 kts 320°
2026-04-27 15:57 26.42609 50.73855 8245 ft 351 kts 320°
2026-04-27 15:57 26.44544 50.72167 8977 ft 354 kts 319°
2026-04-27 15:57 26.46483 50.70446 9701 ft 357 kts 319°
2026-04-27 15:57 26.48423 50.68696 10382 ft 360 kts 318°
2026-04-27 15:58 26.50374 50.66915 11068 ft 362 kts 318°
2026-04-27 15:58 26.52327 50.65117 11762 ft 364 kts 317°
2026-04-27 15:58 26.54262 50.63326 12448 ft 367 kts 317°
2026-04-27 15:58 26.56240 50.61497 13132 ft 369 kts 317°
2026-04-27 15:59 26.58226 50.59659 13782 ft 372 kts 318°
2026-04-27 15:59 26.60230 50.57807 14375 ft 374 kts 317°
2026-04-27 15:59 26.62247 50.55947 14964 ft 376 kts 317°
2026-04-27 15:59 26.64278 50.54076 15539 ft 379 kts 317°
2026-04-27 16:00 26.66320 50.52194 16124 ft 381 kts 317°
2026-04-27 16:00 26.68346 50.50323 16690 ft 383 kts 317°
2026-04-27 16:00 26.70400 50.48419 17258 ft 385 kts 316°
2026-04-27 16:00 26.72418 50.46437 17820 ft 386 kts 314°
2026-04-27 16:01 26.74392 50.44380 18335 ft 388 kts 313°
2026-04-27 16:01 26.76343 50.42278 18797 ft 391 kts 312°
2026-04-27 16:01 26.78302 50.40146 19256 ft 393 kts 312°
2026-04-27 16:01 26.80280 50.38001 19713 ft 396 kts 312°
2026-04-27 16:02 26.82276 50.35857 20162 ft 399 kts 312°
2026-04-27 16:02 26.84291 50.33707 20597 ft 402 kts 312°
2026-04-27 16:02 26.86303 50.31571 21022 ft 405 kts 312°
2026-04-27 16:02 26.88359 50.29398 21444 ft 408 kts 312°
2026-04-27 16:03 26.90434 50.27207 21859 ft 411 kts 312°
2026-04-27 16:03 26.92519 50.25003 22265 ft 414 kts 312°
2026-04-27 16:03 26.94622 50.22774 22660 ft 417 kts 312°
2026-04-27 16:03 26.96735 50.20532 23052 ft 419 kts 311°
2026-04-27 16:04 26.98862 50.18268 23426 ft 422 kts 311°
2026-04-27 16:04 27.01006 50.15984 23751 ft 424 kts 311°
2026-04-27 16:04 27.03152 50.13699 24092 ft 426 kts 311°
2026-04-27 16:04 27.05245 50.11341 24419 ft 425 kts 306°
2026-04-27 16:05 27.07150 50.08842 24763 ft 426 kts 305°
2026-04-27 16:05 27.09080 50.06303 25106 ft 428 kts 305°
2026-04-27 16:05 27.11014 50.03759 25453 ft 429 kts 305°
2026-04-27 16:05 27.12956 50.01205 25738 ft 430 kts 305°
2026-04-27 16:06 27.14900 49.98650 25808 ft 429 kts 305°
2026-04-27 16:06 27.16837 49.96104 25814 ft 428 kts 305°
2026-04-27 16:06 27.18774 49.93558 25814 ft 427 kts 305°
2026-04-27 16:06 27.20708 49.91013 25811 ft 427 kts 305°
2026-04-27 16:07 27.22610 49.88504 25812 ft 427 kts 305°
2026-04-27 16:07 27.24532 49.85964 25814 ft 427 kts 305°
2026-04-27 16:07 27.26448 49.83432 25812 ft 419 kts 305°
2026-04-27 16:07 27.28297 49.81004 25812 ft 399 kts 305°
2026-04-27 16:08 27.30079 49.78667 25812 ft 389 kts 304°
2026-04-27 16:08 27.31829 49.76355 25810 ft 386 kts 304°
2026-04-27 16:08 27.33564 49.74052 25807 ft 385 kts 304°
2026-04-27 16:08 27.35298 49.71746 25809 ft 385 kts 304°
2026-04-27 16:09 27.37027 49.69446 25810 ft 385 kts 304°
2026-04-27 16:09 27.40469 49.64880 25811 ft 385 kts 304°
2026-04-27 16:09 27.42202 49.62584 25810 ft 384 kts 304°
2026-04-27 16:10 27.45660 49.57993 25811 ft 384 kts 304°
2026-04-27 16:10 27.49360 49.53592 25805 ft 392 kts 314°
2026-04-27 16:11 27.51479 49.51701 25802 ft 392 kts 315°
2026-04-27 16:11 27.55758 49.47875 25802 ft 392 kts 314°
2026-04-27 16:12 27.60037 49.44040 25804 ft 392 kts 314°
2026-04-27 16:12 27.62150 49.42144 25803 ft 392 kts 314°
2026-04-27 16:12 27.66425 49.38307 25798 ft 392 kts 314°
2026-04-27 16:13 27.68554 49.36391 25799 ft 392 kts 314°
2026-04-27 16:13 27.72828 49.32551 25797 ft 392 kts 314°
2026-04-27 16:13 27.74958 49.30636 25793 ft 391 kts 314°
2026-04-27 16:14 27.79122 49.26895 25425 ft 380 kts 314°
2026-04-27 16:14 27.83244 49.23179 25054 ft 377 kts 314°
2026-04-27 16:15 27.87354 49.19512 24687 ft 377 kts 318°
2026-04-27 16:15 27.91875 49.16466 24329 ft 380 kts 323°
2026-04-27 16:16 27.96435 49.13473 23970 ft 378 kts 323°
2026-04-27 16:16 28.00985 49.10486 23616 ft 376 kts 323°
2026-04-27 16:17 28.05516 49.07512 23247 ft 374 kts 323°
2026-04-27 16:17 28.09978 49.04578 22820 ft 372 kts 323°
2026-04-27 16:18 28.14445 49.01645 22411 ft 369 kts 323°
2026-04-27 16:18 28.18878 48.98723 21995 ft 367 kts 323°
2026-04-27 16:19 28.21085 48.97268 21826 ft 366 kts 323°
2026-04-27 16:19 28.23292 48.95812 21811 ft 366 kts 323°
2026-04-27 16:20 28.29876 48.91464 21817 ft 366 kts 323°
2026-04-27 16:20 28.32075 48.90012 21651 ft 363 kts 323°
2026-04-27 16:20 28.36431 48.87138 20683 ft 359 kts 324°
2026-04-27 16:21 28.38595 48.85712 20223 ft 357 kts 324°
2026-04-27 16:21 28.44962 48.81485 18904 ft 352 kts 324°
2026-04-27 16:22 28.47072 48.80083 18494 ft 350 kts 324°
2026-04-27 16:22 28.51261 48.77295 17811 ft 348 kts 325°
2026-04-27 16:22 28.53350 48.75898 17806 ft 349 kts 325°
2026-04-27 16:23 28.55433 48.74475 17807 ft 348 kts 322°
2026-04-27 16:23 28.58995 48.70866 17809 ft 340 kts 306°
2026-04-27 16:23 28.60413 48.68762 17674 ft 337 kts 303°
2026-04-27 16:24 28.61819 48.66640 17197 ft 335 kts 303°
2026-04-27 16:24 28.64628 48.62421 16273 ft 333 kts 304°
2026-04-27 16:25 28.67424 48.58224 15418 ft 331 kts 304°
2026-04-27 16:25 28.70193 48.54057 14612 ft 328 kts 304°
2026-04-27 16:26 28.72919 48.50080 14358 ft 310 kts 311°
2026-04-27 16:26 28.76380 48.47252 13873 ft 307 kts 328°
2026-04-27 16:27 28.80099 48.44957 13080 ft 305 kts 328°
2026-04-27 16:27 28.85674 48.41496 12066 ft 301 kts 328°
2026-04-27 16:28 28.89313 48.39235 11393 ft 298 kts 328°
2026-04-27 16:28 28.92956 48.36969 10715 ft 296 kts 328°
2026-04-27 16:29 28.98351 48.33603 9694 ft 293 kts 328°
2026-04-27 16:30 29.01900 48.31392 8950 ft 291 kts 328°
2026-04-27 16:30 29.05450 48.29180 8176 ft 289 kts 328°
2026-04-27 16:31 29.10732 48.25878 7046 ft 286 kts 327°
2026-04-27 16:31 29.14097 48.23783 6646 ft 270 kts 327°
2026-04-27 16:32 29.17406 48.21707 5713 ft 273 kts 327°
2026-04-27 16:32 29.19071 48.20662 5340 ft 272 kts 327°
2026-04-27 16:33 29.22385 48.18586 4609 ft 271 kts 327°
2026-04-27 16:33 29.24041 48.17550 4228 ft 270 kts 327°
2026-04-27 16:33 29.25687 48.16520 3864 ft 268 kts 327°
2026-04-27 16:33 29.27322 48.15496 3502 ft 267 kts 327°
2026-04-27 16:34 29.28944 48.14480 3214 ft 260 kts 328°
2026-04-27 16:34 29.30483 48.13520 3094 ft 243 kts 327°
2026-04-27 16:34 29.31938 48.12613 2971 ft 233 kts 327°
2026-04-27 16:34 29.33317 48.11752 2849 ft 223 kts 327°
2026-04-27 16:35 29.34653 48.10915 2719 ft 215 kts 327°
2026-04-27 16:35 29.35949 48.10101 2579 ft 210 kts 327°
2026-04-27 16:35 29.38551 48.08460 2502 ft 215 kts 328°
2026-04-27 16:36 29.39862 48.07633 2514 ft 215 kts 328°
2026-04-27 16:36 29.41175 48.06806 2501 ft 215 kts 327°
2026-04-27 16:36 29.42244 48.05674 2517 ft 207 kts 293°
2026-04-27 16:36 29.42577 48.04126 2509 ft 199 kts 268°
2026-04-27 16:37 29.42593 48.03078 2507 ft 198 kts 265°
2026-04-27 16:37 29.42560 48.01489 2504 ft 201 kts 264°
2026-04-27 16:37 29.42509 47.99881 2504 ft 201 kts 264°
2026-04-27 16:37 29.42442 47.97768 2503 ft 200 kts 264°
2026-04-27 16:38 29.42406 47.96701 2514 ft 201 kts 264°
2026-04-27 16:38 29.42351 47.95099 2505 ft 200 kts 264°
2026-04-27 16:38 29.42300 47.93497 2506 ft 202 kts 264°
2026-04-27 16:38 29.42248 47.91886 2502 ft 202 kts 264°
2026-04-27 16:39 29.42054 47.90322 2506 ft 195 kts 241°
2026-04-27 16:39 29.41208 47.89155 2508 ft 192 kts 214°
2026-04-27 16:39 29.40016 47.88507 2496 ft 191 kts 192°
2026-04-27 16:39 29.38710 47.88465 2498 ft 191 kts 170°
2026-04-27 16:40 29.37465 47.89003 2501 ft 192 kts 158°
2026-04-27 16:40 29.36254 47.89651 2466 ft 192 kts 158°
2026-04-27 16:40 29.35072 47.90284 2297 ft 180 kts 158°
2026-04-27 16:40 29.33979 47.90868 2106 ft 163 kts 158°
2026-04-27 16:41 29.33020 47.91379 1887 ft 146 kts 158°
2026-04-27 16:41 29.32123 47.91857 1701 ft 138 kts 156°
2026-04-27 16:41 29.31263 47.92314 1535 ft 135 kts 156°
2026-04-27 16:41 29.30417 47.92764 1360 ft 133 kts 155°
2026-04-27 16:42 29.29576 47.93211 1195 ft 133 kts 155°
2026-04-27 16:42 29.28737 47.93658 1022 ft 133 kts 155°
2026-04-27 16:42 29.27898 47.94104 897 ft 134 kts 154°
2026-04-27 16:42 29.27058 47.94551 769 ft 132 kts 153°
2026-04-27 16:43 29.26227 47.94993 636 ft 131 kts 153°
2026-04-27 16:43 29.25400 47.95433 477 ft 131 kts 153°
2026-04-27 16:43 29.24574 47.95879 317 ft 131 kts 153°
2026-04-27 16:43 29.23741 47.96315 173 ft 129 kts 153°
2026-04-27 16:44 29.23038 47.96696 175 ft 92 kts 155°
2026-04-27 16:44 29.22523 47.96972 177 ft 73 kts 155°
2026-04-27 16:44 29.22148 47.97175 181 ft 37 kts 155°
2026-04-27 16:44 29.21984 47.97294 182 ft 17 kts 128°
2026-04-27 16:45 29.21931 47.97431 176 ft 21 kts 103°
2026-04-27 16:45 29.21998 47.97493 172 ft 13 kts 332°
2026-04-27 16:45 29.22079 47.97443 172 ft 13 kts 331°
2026-04-27 16:45 29.22154 47.97401 171 ft 12 kts 336°
2026-04-27 16:46 29.22227 47.97364 170 ft 11 kts 336°
2026-04-27 16:46 29.22299 47.97328 169 ft 11 kts 336°
2026-04-27 16:46 29.22371 47.97291 168 ft 11 kts 335°
2026-04-27 16:46 29.22438 47.97254 168 ft 11 kts 334°
2026-04-27 16:47 29.22505 47.97219 167 ft 10 kts 335°
2026-04-27 16:47 29.22570 47.97183 166 ft 10 kts 334°
2026-04-27 16:47 29.22635 47.97147 165 ft 10 kts 333°
2026-04-27 16:47 29.22698 47.97112 164 ft 10 kts 335°
2026-04-27 16:48 29.22759 47.97079 164 ft 9 kts 334°
2026-04-27 16:48 29.22822 47.97045 163 ft 14 kts 335°
2026-04-27 16:48 29.22953 47.96975 162 ft 21 kts 334°
2026-04-27 16:49 29.23211 47.96846 159 ft 19 kts 337°
2026-04-27 16:49 29.23331 47.96782 157 ft 18 kts 334°
2026-04-27 16:49 29.23397 47.96790 156 ft 10 kts 57°
2026-04-27 16:49 29.23421 47.96851 154 ft 8 kts 65°
2026-04-27 16:50 29.23441 47.96902 154 ft 5 kts 65°
2026-04-27 16:50 29.23452 47.96930 154 ft 7 kts 66°
2026-04-27 16:50 29.23481 47.97005 154 ft 14 kts 65°
2026-04-27 16:50 29.23526 47.97116 156 ft 8 kts 65°
2026-04-27 16:51 29.23527 47.97118 156 ft 0 kts 65°
2026-04-27 16:51 29.23527 47.97119 156 ft 2 kts 65°
2026-04-27 16:52 29.23551 47.97172 156 ft 13 kts 63°
2026-04-27 16:52 29.23588 47.97267 158 ft 13 kts 67°
2026-04-27 16:52 29.23617 47.97343 159 ft 7 kts 66°
2026-04-27 16:52 29.23639 47.97402 160 ft 11 kts 67°
2026-04-27 16:53 29.23689 47.97460 162 ft 10 kts 10°
2026-04-27 16:53 29.23748 47.97434 161 ft 9 kts 333°
2026-04-27 16:53 29.23803 47.97402 160 ft 8 kts 332°
2026-04-27 16:53 29.23855 47.97375 160 ft 8 kts 339°
2026-04-27 16:54 29.23909 47.97360 160 ft 8 kts 348°
2026-04-27 16:54 29.23930 47.97312 159 ft 7 kts 271°
2026-04-27 16:54 29.23945 47.97255 158 ft 8 kts 289°
2026-04-27 16:54 29.23947 47.97250 158 ft 0 kts 289°